Wind_Speed
7 7 7 6 7 7 7 6 6 6 6 6 6 6 6 6 5 5 5 5 6 6 6 5 5 5 5 5 5 5 4 4 4 4 4 4 3 4 4 5 5 4 3
6 7 8 8 7 7 7 7 7 6 6 7 7 6 6 6 5 5 4 5 6 6 5 5 6 5 5 5 5 5 5 5 4 4 5 4 3 4 4 4 4 4 4
7 7 7 8 7 7 7 7 7 7 7 7 6 6 6 5 5 5 5 5 5 5 5 5 6 5 5 6 6 5 5 4 5 4 4 3 3 3 4 4 4 3 3
7 7 7 7 7 7 7 7 7 7 7 7 7 6 6 6 5 5 5 5 5 5 5 4 4 5 5 5 4 4 4 4 4 3 3 3 3 3 3 3 3 3 3
8 7 7 7 7 7 6 6 6 7 7 7 7 6 6 5 5 5 5 5 5 5 4 4 4 4 4 3 3 4 4 4 3 3 2 3 3 3 3 3 3 3 3
8 7 7 6 6 6 6 7 7 7 7 7 7 7 6 5 5 5 5 5 4 4 3 3 3 4 4 3 3 3 3 3 3 2 2 3 3 3 2 2 2 2 2
8 8 7 6 6 7 7 7 8 8 7 7 7 7 7 6 6 6 5 5 5 5 4 2 2 3 3 2 2 2 3 3 3 2 2 2 2 2 2 2 2 2 2
8 8 7 7 7 7 7 7 7 8 7 7 6 7 7 6 6 6 6 5 5 4 4 3 2 3 3 2 1 2 2 2 2 2 2 3 2 2 1 1 1 1 2
8 8 8 7 7 7 7 6 6 6 6 6 5 6 6 5 6 6 6 5 5 4 3 2 2 3 2 1 0 1 2 2 2 2 2 2 2 2 2 1 1 1 1
9 8 8 7 7 7 7 7 7 6 6 5 6 6 5 5 5 5 5 4 4 4 3 2 2 2 2 1 1 0 1 1 3 2 2 1 2 2 2 2 2 1 1
9 9 8 8 7 7 7 7 7 6 5 5 5 5 5 4 4 4 3 3 3 4 3 2 3 2 3 2 1 1 1 1 3 2 0 1 1 2 3 3 3 2 2
10 9 9 8 8 7 7 7 7 6 6 6 5 5 5 4 4 4 3 3 3 4 3 2 3 3 3 2 2 1 1 2 3 2 1 1 2 2 3 4 4 4 3
10 10 10 9 8 8 6 7 7 7 6 5 5 5 4 4 4 4 4 3 3 4 4 3 4 4 3 3 2 1 2 2 3 3 2 3 3 3 4 5 5 4 4
10 11 10 10 9 7 7 7 6 6 5 5 4 4 4 4 4 5 4 3 3 3 3 4 4 4 3 3 2 2 3 3 4 4 4 4 4 4 5 5 6 5 5
11 10 9 9 9 8 7 7 6 6 6 5 5 4 4 4 4 5 5 4 4 4 4 4 3 2 2 3 3 3 3 4 4 5 5 5 5 5 6 6 6 6 7
11 10 10 9 9 9 8 7 6 6 6 5 5 4 4 4 4 4 4 4 4 4 4 4 3 3 2 3 4 4 5 4 4 5 5 6 5 6 7 7 7 7 8
10 10 9 10 10 9 9 8 7 7 6 5 5 5 4 4 4 4 4 4 4 4 4 4 4 4 3 4 4 5 4 4 4 4 5 6 7 7 7 7 7 8 8
9 9 9 10 9 9 9 9 9 8 6 5 5 5 5 5 4 4 4 4 4 4 4 4 5 4 4 5 5 5 5 4 4 4 6 7 8 8 8 8 7 7 8
9 9 9 9 9 9 9 9 8 7 6 5 5 5 4 4 4 4 4 4 4 4 4 4 5 4 5 5 5 5 5 5 4 5 7 8 8 8 8 8 8 9 8
9 8 8 8 8 8 8 7 7 6 6 5 4 3 3 3 4 4 4 4 4 4 5 5 5 5 6 6 5 5 6 6 6 7 8 8 8 9 9 9 10 9 9
9 8 8 7 7 7 7 6 6 5 5 5 5 4 4 4 4 4 4 4 5 4 4 5 5 6 6 6 5 5 6 7 7 7 8 8 9 9 9 10 11 10 9
9 8 7 6 6 6 7 6 6 6 5 5 6 5 5 5 5 4 4 4 5 5 4 5 5 6 6 6 6 6 7 7 8 7 7 8 8 8 9 10 10 10 10
9 9 8 7 7 6 5 5 5 5 5 5 5 6 5 5 5 5 5 6 5 5 5 6 6 6 7 6 6 7 7 7 7 7 8 8 9 9 9 10 11 11 11
8 8 8 8 7 6 5 5 4 4 5 5 6 6 5 5 5 5 6 6 6 6 6 7 7 7 7 7 7 8 8 9 9 8 8 9 9 10 10 10 11 11 12
7 7 7 7 7 7 7 6 5 5 5 6 5 5 5 5 5 6 6 7 7 7 7 8 8 8 8 8 8 8 9 9 10 10 10 11 11 11 11 11 12 12 13
6 6 6 6 6 6 7 7 6 6 6 6 6 6 6 6 6 6 7 7 7 8 8 9 9 9 9 9 9 10 10 10 11 11 11 11 12 12 12 12 13 13 13
Wind_Direction
91 87 96 103 110 114 114 117 125 123 131 136 139 141 138 149 151 151 147 148 157 150 135 131 127 122 118 129 131 131 131 130 136 134 131 126 119 117 113 114 111 114 115
89 93 96 100 108 112 114 119 122 127 132 137 133 134 136 136 140 144 134 134 142 143 134 127 129 127 121 128 135 137 143 144 138 136 133 126 127 130 119 121 112 106 107
90 98 97 96 103 109 111 117 122 126 135 137 133 134 137 135 135 136 129 132 139 138 134 127 130 129 128 131 136 140 147 143 136 138 134 138 140 132 128 123 118 112 112
89 101 100 102 105 108 108 115 126 128 128 130 131 131 130 125 125 127 125 126 128 131 130 123 134 136 139 145 149 149 148 145 143 144 145 153 157 152 139 136 129 127 123
89 97 100 102 108 114 115 117 126 133 133 126 128 130 128 121 117 119 116 113 120 127 125 120 134 141 154 164 165 160 151 152 158 157 161 163 168 158 149 156 151 146 139
85 92 92 102 110 115 116 117 121 126 126 127 127 126 123 114 112 118 111 104 106 123 117 124 135 134 133 138 161 172 170 170 170 159 157 168 160 147 156 160 166 167 157
81 89 95 99 106 110 114 117 121 122 123 126 124 120 118 115 111 113 106 97 93 102 102 111 122 130 125 124 141 172 183 189 188 173 169 173 161 143 139 143 153 158 158
80 87 99 101 103 113 116 117 121 123 123 124 120 112 111 107 106 104 101 96 89 80 83 102 109 130 125 121 141 184 212 217 206 184 195 204 189 188 175 151 174 183 179
87 92 97 99 106 110 114 113 123 129 127 121 121 117 113 106 102 99 94 88 80 76 73 74 102 107 89 75 78 208 226 226 244 231 212 214 196 205 223 210 216 222 199
85 93 96 99 109 113 113 113 118 126 124 118 118 118 112 106 102 98 93 83 71 58 47 33 43 68 44 11 328 286 241 254 260 251 231 225 220 223 247 248 252 243 224
84 89 91 97 105 114 118 116 119 122 117 116 115 113 114 111 99 92 88 71 66 58 48 23 25 27 29 19 349 308 287 284 252 243 217 298 264 252 260 267 273 270 256
83 88 93 97 96 101 109 115 120 117 110 112 113 115 112 102 86 77 89 67 46 49 44 21 29 32 18 14 358 323 312 310 256 254 292 308 291 266 270 268 270 275 266
81 88 93 95 94 94 103 113 115 109 108 108 111 113 106 100 88 79 74 54 46 42 40 33 28 22 16 14 2 330 313 311 273 275 297 291 279 268 274 270 270 270 269
82 87 94 95 93 94 95 104 111 109 105 105 101 97 100 93 84 79 68 53 42 40 41 34 28 20 20 18 2 311 310 297 279 276 283 285 279 275 277 272 271 272 270
81 84 89 92 88 87 88 98 108 107 101 104 99 96 93 84 75 72 56 47 39 34 22 20 8 16 17 356 342 322 297 285 280 281 284 280 274 277 279 272 269 275 274
81 85 89 87 81 80 84 93 100 102 97 98 105 95 76 70 67 55 37 32 34 21 10 9 358 358 345 337 321 313 310 296 297 287 281 277 283 288 286 279 272 274 275
74 74 79 81 80 80 83 87 92 93 91 88 86 83 74 64 54 36 21 14 7 2 11 4 352 352 340 334 322 322 321 323 307 294 285 281 292 294 287 285 279 274 274
70 72 77 79 79 81 82 81 80 74 78 77 74 73 65 54 36 19 4 358 357 353 358 355 353 341 335 334 335 335 330 320 309 291 285 286 288 287 286 282 283 277 277
69 73 78 78 78 78 79 77 74 70 65 66 68 59 46 35 22 8 2 358 353 348 348 345 337 330 331 332 333 336 331 314 307 299 303 300 292 285 284 285 281 277 279
66 70 74 73 72 73 75 73 70 64 60 58 51 40 30 11 3 1 357 354 346 344 342 332 325 334 333 333 328 327 321 310 303 301 302 301 293 286 286 286 284 279 276
57 64 66 65 66 66 66 64 62 54 49 43 34 27 13 359 356 357 355 354 349 343 339 328 322 323 326 330 327 323 317 310 306 304 303 296 290 290 289 291 290 282 278
54 57 60 60 57 57 55 54 54 47 42 34 22 14 9 356 348 343 343 340 340 338 331 326 322 321 321 323 319 315 317 310 305 303 303 301 299 295 288 288 292 286 282
49 52 53 51 46 43 44 41 36 31 22 12 5 2 358 348 343 339 333 328 333 327 319 322 323 323 320 316 309 308 307 306 305 302 300 300 302 301 298 295 294 290 282
41 45 46 45 41 33 25 19 14 6 1 355 354 351 346 342 342 340 337 331 322 319 318 316 313 313 314 315 312 307 307 307 304 297 296 298 298 297 297 294 290 288 283
32 34 35 33 33 31 24 15 3 353 345 341 339 340 343 341 338 337 333 331 325 319 314 311 309 309 310 310 307 304 303 304 305 303 301 300 297 294 291 289 287 287 284
23 25 24 20 19 17 15 12 7 359 348 341 335 338 339 336 332 332 326 325 325 320 316 313 312 311 310 307 303 304 305 306 306 306 304 299 296 295 293 289 287 285 285
Height
5883 5883 5883 5884 5884 5885 5885 5886 5887 5888 5889 5889 5890 5891 5892 5892 5893 5893 5894 5894 5895 5895 5896 5896 5897 5897 5897 5897 5897 5897 5897 5897 5897 5897 5897 5897 5897 5897 5896 5896 5896 5895 5895
5884 5884 5884 5885 5885 5886 5886 5887 5888 5889 5890 5890 5891 5892 5892 5893 5893 5894 5894 5895 5895 5896 5897 5897 5897 5897 5897 5897 5897 5897 5897 5898 5898 5898 5898 5898 5898 5897 5897 5897 5896 5896 5895
5885 5885 5886 5886 5886 5887 5888 5888 5889 5890 5890 5891 5892 5893 5893 5894 5894 5895 5895 5895 5896 5897 5897 5897 5898 5898 5898 5898 5898 5898 5898 5898 5898 5898 5898 5898 5898 5897 5897 5897 5897 5896 5896
5886 5886 5886 5887 5887 5888 5889 5889 5890 5891 5891 5892 5893 5893 5894 5895 5895 5896 5896 5896 5897 5897 5897 5898 5898 5898 5898 5899 5899 5899 5898 5898 5898 5898 5898 5898 5898 5898 5898 5897 5897 5897 5896
5887 5887 5888 5888 5888 5889 5889 5890 5891 5891 5892 5893 5894 5894 5895 5896 5896 5896 5897 5897 5897 5898 5898 5898 5899 5899 5899 5899 5899 5899 5899 5898 5898 5899 5899 5898 5898 5898 5898 5897 5897 5897 5897
5888 5888 5889 5889 5889 5890 5890 5891 5891 5892 5893 5894 5895 5895 5896 5897 5897 5897 5897 5898 5897 5897 5899 5899 5899 5899 5899 5899 5899 5899 5899 5899 5899 5899 5899 5898 5898 5898 5898 5897 5897 5897 5897
5889 5890 5890 5890 5890 5891 5891 5892 5893 5894 5895 5895 5896 5897 5897 5897 5898 5898 5898 5898 5898 5899 5899 5900 5900 5900 5900 5900 5899 5899 5899 5899 5899 5899 5899 5899 5898 5898 5898 5897 5897 5897 5896
5890 5891 5891 5891 5891 5892 5893 5893 5894 5895 5896 5897 5897 5898 5899 5899 5899 5899 5899 5899 5899 5900 5900 5900 5900 5900 5900 5900 5900 5899 5899 5899 5899 5899 5899 5898 5898 5898 5898 5897 5897 5897 5896
5891 5892 5892 5892 5893 5893 5894 5895 5895 5896 5897 5898 5899 5899 5900 5900 5900 5900 5900 5900 5900 5900 5900 5900 5900 5900 5900 5900 5900 5899 5899 5899 5898 5898 5898 5898 5898 5898 5898 5897 5897 5896 5896
5893 5893 5893 5893 5894 5895 5895 5896 5896 5897 5898 5899 5899 5900 5900 5901 5901 5901 5901 5901 5901 5901 5901 5901 5901 5900 5900 5900 5899 5899 5899 5899 5899 5898 5897 5898 5897 5897 5897 5897 5896 5896 5895
5894 5894 5894 5894 5895 5896 5896 5897 5897 5898 5899 5899 5900 5901 5901 5901 5901 5902 5902 5902 5902 5902 5901 5901 5901 5901 5900 5900 5899 5899 5899 5898 5898 5897 5897 5897 5897 5897 5896 5896 5896 5895 5895
5896 5896 5896 5896 5896 5897 5897 5898 5899 5899 5900 5900 5901 5901 5901 5902 5902 5902 5903 5903 5903 5902 5902 5901 5901 5901 5900 5900 5899 5899 5898 5898 5898 5898 5897 5897 5896 5896 5895 5895 5894 5894 5894
5897 5897 5897 5897 5898 5898 5899 5899 5900 5900 5901 5901 5902 5902 5902 5902 5903 5903 5903 5903 5903 5902 5902 5901 5901 5901 5900 5899 5899 5899 5898 5898 5897 5897 5896 5896 5896 5895 5894 5894 5893 5893 5892
5899 5899 5899 5899 5899 5900 5900 5900 5901 5901 5901 5902 5902 5902 5903 5903 5903 5903 5903 5903 5903 5902 5902 5901 5901 5900 5900 5899 5899 5898 5898 5897 5897 5896 5895 5895 5894 5894 5893 5892 5892 5891 5891
5901 5901 5901 5901 5901 5901 5901 5901 5901 5902 5902 5902 5902 5903 5903 5903 5903 5903 5903 5903 5903 5902 5902 5901 5901 5900 5900 5899 5898 5898 5897 5897 5896 5895 5894 5893 5893 5892 5891 5890 5890 5889 5889
5904 5903 5903 5903 5903 5902 5902 5902 5902 5902 5902 5902 5902 5903 5903 5904 5904 5903 5903 5903 5903 5902 5902 5901 5901 5900 5899 5898 5898 5897 5896 5895 5895 5894 5893 5891 5891 5891 5890 5889 5888 5887 5887
5906 5905 5905 5905 5904 5904 5904 5903 5903 5903 5903 5903 5903 5903 5904 5904 5904 5903 5903 5903 5903 5902 5901 5901 5900 5899 5899 5898 5897 5896 5895 5894 5893 5892 5891 5890 5889 5889 5888 5887 5886 5885 5884
5908 5907 5907 5906 5906 5906 5905 5905 5905 5904 5904 5904 5904 5904 5904 5904 5904 5903 5903 5903 5902 5901 5901 5900 5899 5899 5898 5897 5896 5895 5894 5893 5891 5891 5890 5889 5888 5887 5886 5885 5884 5883 5882
5909 5909 5908 5908 5908 5907 5907 5906 5906 5906 5905 5905 5904 5904 5904 5904 5904 5903 5903 5902 5901 5901 5900 5899 5899 5897 5897 5896 5895 5894 5893 5892 5890 5889 5888 5887 5886 5885 5883 5882 5881 5880 5880
5911 5910 5910 5909 5909 5908 5908 5908 5907 5907 5906 5906 5905 5905 5904 5904 5903 5903 5902 5901 5900 5899 5899 5898 5897 5896 5895 5895 5894 5893 5892 5890 5889 5888 5887 5885 5884 5883 5882 5880 5879 5878 5877
5912 5911 5911 5910 5910 5910 5909 5908 5908 5907 5907 5906 5906 5905 5904 5904 5903 5902 5901 5900 5899 5898 5898 5897 5897 5895 5894 5893 5892 5891 5890 5889 5887 5886 5885 5884 5882 5880 5879 5878 5877 5876 5874
5914 5913 5912 5911 5911 5910 5910 5909 5909 5908 5907 5906 5905 5904 5904 5903 5902 5901 5900 5899 5898 5897 5897 5896 5895 5894 5893 5892 5891 5890 5889 5888 5886 5884 5883 5882 5880 5878 5877 5876 5875 5873 5872
5915 5914 5913 5912 5912 5911 5910 5910 5909 5908 5908 5907 5905 5904 5903 5902 5901 5900 5899 5898 5896 5895 5895 5894 5893 5893 5891 5890 5889 5888 5887 5886 5884 5883 5881 5880 5878 5876 5875 5873 5872 5871 5870
5916 5915 5914 5913 5912 5911 5910 5910 5909 5908 5907 5906 5905 5904 5903 5902 5900 5899 5898 5897 5896 5895 5894 5893 5892 5890 5889 5888 5887 5886 5884 5883 5882 5880 5879 5877 5875 5874 5872 5871 5869 5868 5867
5917 5916 5914 5913 5912 5911 5910 5909 5908 5908 5907 5906 5904 5903 5902 5901 5899 5898 5897 5896 5894 5893 5892 5891 5890 5888 5887 5886 5885 5883 5882 5880 5879 5877 5876 5875 5873 5871 5870 5868 5867 5865 5864
5917 5916 5915 5914 5912 5911 5910 5909 5908 5907 5906 5905 5904 5902 5901 5899 5898 5897 5895 5894 5893 5891 5890 5888 5887 5886 5885 5883 5882 5881 5879 5878 5876 5874 5872 5871 5869 5868 5866 5865 5863 5862 5860